Temperature
11 12 12 13 11 10 11 11 13 15 16 18 19 19 18 19 19 19 20 20 20 20 19 18 18 18 18 18 18 18 17 17 17 17 17 17 17 17 17 17 17 16 16 16 16 16 16 16 16
11 11 12 12 9 10 10 11 13 14 16 17 18 18 18 19 19 19 19 19 19 19 19 18 18 18 18 17 17 17 17 17 17 17 17 16 16 16 16 16 16 16 16 16 16 16 16 16 16
11 11 11 9 9 10 11 12 13 15 16 17 17 17 18 18 18 18 19 19 19 18 18 18 18 18 17 17 17 17 17 17 16 16 16 16 16 16 16 16 16 16 16 16 16 16 16 16 15
10 10 10 8 9 10 11 12 12 13 15 16 16 16 17 17 18 18 18 18 18 18 18 18 18 17 17 17 17 17 17 16 16 16 16 16 16 16 16 16 16 16 16 16 16 16 15 15 15
10 10 8 8 8 10 10 12 13 12 13 15 15 14 16 17 17 18 18 17 18 17 17 17 17 17 17 17 17 17 16 16 16 16 16 16 16 16 16 16 16 16 16 16 16 16 15 15 15
9 8 7 7 8 10 11 12 12 12 13 14 14 14 16 16 16 17 17 17 17 17 17 17 17 17 17 17 16 16 16 16 16 16 16 15 15 16 16 16 16 16 16 16 16 16 15 15 15
8 6 7 7 8 9 11 12 12 11 12 13 14 13 15 15 15 16 16 16 16 16 16 16 16 16 16 16 16 16 16 16 16 15 15 15 15 16 16 16 16 16 16 16 16 16 15 15 15
9 6 7 7 8 9 11 11 12 12 12 13 13 13 14 14 15 15 15 16 16 16 16 16 16 16 16 16 16 16 16 16 15 15 15 15 15 15 16 16 16 16 16 16 16 16 15 15 15
8 6 6 7 8 9 10 11 11 11 12 12 13 13 13 14 14 14 14 15 15 15 15 15 15 15 15 15 15 15 15 15 15 15 15 15 15 15 15 15 16 16 16 16 16 15 15 15 15
8 6 7 9 9 9 10 10 10 11 11 12 12 13 13 13 13 13 14 14 14 15 15 15 15 15 15 15 15 15 15 15 15 15 15 15 15 15 15 15 15 15 15 16 15 15 15 15 15
7 6 8 9 10 10 10 10 10 10 10 11 11 12 13 13 13 13 13 13 14 14 14 14 14 14 14 14 14 14 14 14 15 15 15 15 15 15 15 15 15 15 15 15 15 15 15 15 15
7 8 8 9 9 9 9 9 9 9 10 11 11 12 12 12 12 12 13 13 13 14 14 14 14 14 14 14 14 14 14 14 15 15 15 15 15 15 15 15 15 15 15 15 15 15 15 15 15
7 8 9 9 9 9 9 9 9 9 11 11 11 11 11 11 12 12 12 13 13 13 13 13 14 14 14 14 14 14 14 14 14 14 14 15 15 15 15 15 15 15 15 15 15 15 15 15 14
8 8 8 9 9 9 9 9 9 9 11 11 11 11 11 11 12 12 12 12 12 13 13 13 13 13 13 13 14 14 14 14 14 14 14 14 15 15 15 15 15 15 15 15 15 15 15 14 14
8 7 7 8 8 8 8 8 8 10 10 10 10 11 11 11 11 11 12 12 12 12 13 13 13 13 13 13 13 14 14 14 14 14 14 14 14 15 15 15 15 15 15 15 15 15 14 14 14
7 7 6 8 8 8 8 7 9 10 10 10 10 10 10 11 11 11 11 12 12 12 12 12 13 12 12 13 13 13 13 14 14 14 14 14 14 14 15 15 15 15 15 15 15 14 14 14 14
6 6 6 7 8 8 8 7 9 9 9 9 9 10 10 10 11 11 11 11 11 12 12 12 12 12 12 12 13 13 13 13 14 14 14 14 14 14 14 15 15 15 14 14 14 14 14 14 14
5 6 6 7 7 8 7 7 8 9 9 9 9 9 10 10 10 10 10 11 11 11 11 12 12 12 12 12 12 12 13 13 13 13 14 14 14 14 14 14 14 14 14 14 14 14 14 14 14
6 6 6 7 8 7 7 7 8 9 9 8 9 9 9 9 10 10 10 10 11 11 11 11 12 12 12 12 12 12 12 13 13 13 13 13 13 14 14 14 14 14 14 14 14 14 14 13 13
7 6 6 6 7 8 7 7 7 8 8 8 8 8 9 9 9 10 10 10 10 11 11 11 11 12 12 12 12 12 12 13 13 13 13 13 13 13 13 14 14 14 14 14 14 14 13 13 13
6 6 6 6 7 7 7 6 7 7 8 8 8 8 8 8 9 9 9 10 10 10 10 11 11 11 12 12 12 12 12 12 12 12 13 13 13 13 13 13 14 14 14 14 14 13 13 13 13
6 7 7 7 6 5 6 6 6 7 7 7 7 8 8 8 9 9 9 9 10 10 10 10 11 11 11 11 11 11 11 11 12 12 12 12 13 13 13 13 13 13 13 13 13 13 13 13 13
7 7 7 6 6 5 6 6 6 6 7 7 7 7 8 8 8 9 9 9 9 10 10 10 10 10 11 11 11 11 11 11 12 12 12 12 12 12 12 13 13 13 13 13 13 13 13 13 13
7 6 6 5 5 5 6 6 5 5 6 6 7 7 7 7 8 8 9 9 9 9 9 10 10 10 10 10 10 10 11 11 11 11 12 12 12 12 12 12 12 12 13 12 13 13 13 13 13
6 5 5 5 5 5 6 6 5 6 6 6 6 6 6 7 7 7 8 8 9 9 9 9 9 9 10 10 10 10 10 11 11 11 11 11 11 12 12 12 12 12 12 12 12 12 12 12 12
6 5 5 5 5 5 6 5 5 6 6 6 6 6 6 6 6 6 7 7 8 8 9 9 9 9 9 9 10 10 10 10 10 11 11 11 11 11 11 12 12 12 12 12 12 12 12 12 12
6 5 5 4 4 5 5 5 6 6 6 6 6 6 6 6 6 6 6 7 7 8 8 8 8 9 9 9 9 9 10 10 10 10 10 11 11 11 11 11 11 11 11 11 11 11 11 11 11
6 6 4 4 5 5 5 5 5 5 5 5 5 5 5 5 6 6 6 6 7 7 7 8 8 8 8 8 8 9 9 9 10 10 10 10 10 10 11 11 11 11 11 11 11 11 11 11 11
5 5 5 4 4 5 5 5 6 5 5 5 5 5 5 5 5 5 6 6 6 7 7 7 7 8 8 8 8 9 9 9 9 9 10 10 10 10 10 10 10 10 10 10 10 11 10 10 10
6 5 5 4 4 4 4 5 6 5 5 5 5 5 5 5 5 5 5 6 6 6 6 7 7 7 7 8 8 8 8 9 9 9 9 9 10 10 10 10 10 10 10 10 10 10 10 10 10
Wind_Speed
9 9 3 4 2 2 10 8 4 3 4 4 3 3 4 5 5 4 0 6 11 16 20 24 24 23 22 22 22 22 22 21 21 21 21 21 21 21 21 20 20 20 20 19 20 19 19 19 19
6 4 4 3 3 7 8 8 9 8 5 4 5 3 3 3 1 1 2 5 13 15 17 21 24 23 23 22 22 22 22 22 21 21 21 21 21 20 20 20 20 20 20 20 19 19 18 18 17
6 3 3 3 6 10 8 4 5 7 7 4 4 3 3 2 0 1 2 7 11 12 15 18 23 23 23 22 22 23 22 22 22 21 21 21 21 20 20 20 20 20 20 20 19 18 18 16 15
3 4 3 2 10 9 6 4 5 7 6 3 2 5 4 2 1 1 4 9 10 10 12 17 21 23 22 22 22 23 23 22 22 22 21 21 21 21 20 20 20 20 20 19 18 17 16 15 13
4 3 1 6 9 7 6 8 8 7 6 5 3 4 5 4 1 6 7 8 9 8 9 16 20 22 22 22 22 23 23 23 22 22 22 21 21 21 21 21 21 20 20 19 18 16 15 13 13
3 3 3 8 8 6 6 6 6 7 7 6 3 4 6 1 3 4 5 6 7 8 8 14 19 20 21 22 22 22 22 22 22 22 22 22 21 22 22 21 20 20 19 18 17 16 14 12 12
4 3 5 5 5 6 7 4 4 5 7 6 4 4 5 2 1 1 3 4 6 7 8 8 14 16 19 21 21 22 22 22 22 22 22 22 22 22 22 21 21 20 19 18 17 15 13 12 12
5 3 4 4 5 7 4 3 4 4 7 5 3 4 5 4 4 1 2 3 6 6 7 7 9 12 13 17 20 20 20 21 21 21 21 22 22 22 22 21 21 20 19 17 16 14 13 11 11
4 2 5 5 5 5 4 5 6 4 5 5 4 5 5 6 4 2 2 1 4 6 5 7 7 9 11 13 17 18 18 20 20 19 21 21 19 20 20 20 21 20 19 17 15 14 12 10 10
4 4 7 6 5 6 7 7 7 5 7 5 5 6 6 5 4 2 3 4 5 7 6 6 7 9 9 11 12 13 14 15 15 16 18 17 17 17 18 20 21 19 18 17 15 13 11 9 7
6 7 6 8 8 8 9 8 6 5 9 7 7 7 6 6 5 4 5 6 6 7 7 7 7 7 8 7 9 8 10 11 13 15 17 16 16 15 15 15 16 17 16 13 12 11 9 8 6
5 8 8 6 6 7 8 7 7 9 11 8 7 7 5 7 7 6 5 5 5 6 6 6 7 7 8 8 7 7 7 7 9 14 16 15 10 10 11 11 13 13 12 11 10 8 8 7 6
6 6 7 8 8 8 9 10 9 12 12 9 8 7 7 8 8 6 5 5 5 6 5 5 6 6 7 8 7 8 7 8 10 13 15 15 10 9 9 10 12 12 12 11 9 8 7 6 5
5 6 8 8 8 7 9 11 8 12 9 7 7 8 8 8 8 7 6 6 6 5 6 5 5 6 6 7 7 7 8 9 10 12 15 17 13 11 10 9 9 11 13 12 10 8 6 5 5
3 5 8 6 5 4 4 8 9 11 7 7 8 8 7 7 7 8 7 6 6 6 6 6 6 5 6 7 9 8 8 9 8 10 15 16 16 14 11 10 9 11 14 13 9 7 6 4 4
2 2 5 5 2 3 2 9 8 5 4 6 6 6 6 7 6 5 5 5 4 5 6 6 6 6 6 6 7 8 9 9 8 11 14 16 16 16 12 9 9 13 14 10 6 6 5 5 4
2 3 4 6 3 2 3 7 8 4 4 6 6 6 6 6 5 4 4 4 3 4 5 5 6 7 7 6 6 8 8 9 8 10 11 14 16 17 13 9 10 14 10 7 8 6 5 5 5
4 4 4 5 4 2 4 9 11 6 4 6 6 5 4 4 6 4 4 4 3 4 4 5 6 7 7 5 5 6 7 7 7 8 10 14 15 16 13 9 10 12 9 8 7 7 6 5 6
4 4 6 7 5 3 6 10 11 9 5 4 4 3 3 4 4 3 3 3 3 4 5 6 6 6 6 5 5 6 8 8 8 7 10 13 13 15 11 9 9 10 10 10 9 6 7 5 4
3 4 6 7 4 3 4 9 9 6 5 3 3 4 3 3 2 2 2 2 3 5 5 5 6 6 7 6 5 4 6 6 7 6 7 11 13 13 12 10 10 10 9 9 9 7 5 4 5
3 4 4 5 6 4 3 6 6 6 5 5 4 3 4 2 2 2 2 2 3 3 5 5 5 5 6 6 4 4 5 4 5 6 6 8 11 13 12 11 9 10 10 10 10 9 7 6 5
4 4 4 4 3 4 2 3 5 7 8 8 6 4 4 4 4 3 2 2 3 3 3 4 4 5 4 4 4 7 7 7 6 6 6 7 10 11 12 11 10 10 10 10 10 9 6 8 6
5 4 4 4 2 3 2 1 6 6 7 9 7 6 5 4 5 4 3 1 2 2 3 3 2 3 4 4 5 6 6 5 5 5 6 7 8 9 10 10 10 10 9 10 10 9 8 7 6
3 2 2 1 1 2 2 2 4 4 6 7 7 7 7 7 6 5 4 3 1 1 1 2 2 2 3 4 5 6 7 7 7 6 7 7 6 7 9 9 9 9 9 10 10 10 10 8 7
4 3 3 4 3 2 2 1 3 5 5 5 5 6 7 7 6 7 6 5 3 3 1 0 2 1 1 3 5 6 6 6 8 7 7 7 7 6 9 8 9 8 9 10 9 9 9 9 9
1 3 3 2 2 3 3 0 3 4 5 5 5 5 6 7 7 7 7 5 4 3 2 1 1 0 1 1 3 4 4 4 5 6 7 7 7 7 8 8 8 8 9 9 9 8 9 9 9
1 0 2 3 1 2 3 3 3 4 6 7 8 8 8 7 7 7 7 7 6 5 4 2 2 1 0 1 2 3 3 4 4 5 6 5 5 5 7 7 7 8 9 9 9 8 9 9 9
1 2 2 2 1 1 4 3 3 5 5 6 7 8 8 7 7 7 7 7 7 6 5 4 3 2 2 1 1 1 2 3 4 5 5 6 6 6 7 7 7 8 9 9 9 9 9 9 8
2 2 1 1 2 2 2 4 3 2 2 3 4 6 7 8 8 7 7 7 7 7 7 6 4 3 3 3 3 2 1 2 3 4 5 6 6 7 7 7 7 7 8 9 9 8 9 10 9
1 1 2 2 1 1 2 4 3 0 1 2 4 5 7 7 7 7 8 8 8 8 8 8 6 4 3 3 3 2 2 1 1 2 3 4 6 7 7 7 7 7 8 9 10 10 10 11 11
Wind_Direction
345 345 35 55 73 212 234 233 237 250 241 223 246 232 219 215 201 217 312 136 139 155 163 164 164 162 160 158 155 152 149 148 146 144 143 141 139 136 135 133 131 128 125 122 119 116 114 113 111
350 0 52 74 166 218 243 231 237 249 265 306 298 286 284 255 245 114 95 142 146 153 161 164 164 163 162 160 158 156 154 153 151 149 148 146 143 141 139 136 134 130 125 123 120 119 117 115 113
348 34 87 129 201 216 229 232 232 268 287 293 297 297 255 245 298 158 189 144 144 151 157 162 164 164 163 161 160 160 159 158 155 154 152 150 148 146 143 139 135 131 126 124 123 123 120 116 111
47 47 61 199 230 230 235 279 300 300 303 295 288 294 288 299 235 161 137 133 138 151 157 162 163 165 164 164 163 164 163 162 159 158 156 153 151 147 145 140 135 132 129 128 127 127 124 118 111
65 88 165 241 244 249 262 281 301 294 287 290 306 281 280 309 59 116 120 134 139 149 157 165 163 166 166 167 167 166 166 165 163 161 159 157 154 150 146 141 137 136 133 132 132 132 129 120 112
70 94 192 237 247 258 261 264 284 287 286 287 286 272 262 293 85 120 120 136 139 150 155 168 168 165 167 168 168 167 166 167 165 164 162 159 155 151 147 143 141 140 139 137 136 136 133 124 115
123 143 218 240 257 266 258 268 257 264 280 275 246 256 275 310 16 119 114 131 138 148 152 162 169 168 169 166 166 168 167 168 168 167 164 159 155 152 149 147 146 144 143 141 141 141 138 130 122
138 139 237 242 244 255 271 287 268 270 273 268 230 228 264 298 324 24 78 107 138 145 153 160 166 166 169 168 167 167 168 168 168 166 162 158 155 153 152 150 149 147 145 145 145 146 144 135 126
119 160 231 233 234 251 300 302 300 280 259 262 241 245 273 305 329 28 87 89 148 154 158 160 169 165 164 168 170 166 165 166 165 163 159 156 155 154 153 152 151 149 149 149 151 152 149 141 130
143 205 230 232 239 265 287 288 300 305 288 278 280 287 302 319 324 289 192 191 185 175 173 162 170 170 162 168 165 165 166 164 162 160 158 156 154 155 156 154 152 152 152 153 156 157 154 148 137
185 216 242 251 257 266 275 280 278 271 273 261 262 281 299 300 294 272 221 208 202 183 177 172 166 169 165 165 162 163 164 163 161 160 159 157 154 154 153 154 154 155 155 156 159 159 163 163 155
222 241 244 254 261 267 268 268 268 252 255 258 251 251 268 282 281 270 249 218 202 189 178 176 168 169 169 163 165 162 162 165 166 167 164 160 157 156 159 160 160 162 164 162 165 168 175 180 182
241 263 260 261 268 263 265 259 263 262 266 269 267 266 252 262 270 270 255 234 203 190 172 162 164 165 173 165 170 169 170 173 172 172 171 167 164 164 164 165 166 169 170 170 171 177 181 187 189
248 268 280 276 270 263 257 265 263 266 272 266 264 263 260 258 254 257 243 222 204 189 174 162 162 164 171 172 170 169 173 175 175 177 177 174 170 170 170 169 172 176 177 178 179 184 185 188 179
283 297 298 269 251 252 265 273 248 263 275 267 270 265 267 262 249 244 233 218 203 192 174 169 164 163 170 180 176 169 171 174 180 180 177 178 175 174 175 175 178 181 182 180 181 184 181 176 170
303 313 304 289 250 238 223 272 273 278 279 272 274 274 268 264 250 237 234 234 212 196 179 176 174 170 177 185 185 175 174 174 183 184 181 180 180 177 177 179 182 182 180 179 178 177 176 179 169
342 299 281 298 268 240 217 272 289 296 275 278 278 270 262 260 253 235 225 228 223 204 191 182 181 175 181 184 188 183 177 179 181 186 185 184 182 180 179 183 185 182 180 182 185 179 173 172 169
261 270 280 285 303 296 270 276 291 296 271 270 274 272 263 256 250 233 221 227 220 222 203 186 183 179 179 181 186 182 177 182 181 187 191 186 185 182 180 181 185 182 182 186 183 175 173 170 165
243 259 281 286 293 296 281 287 296 301 297 291 289 287 279 263 267 253 225 232 218 215 209 200 189 181 177 180 191 187 186 186 185 187 194 189 187 184 182 184 183 184 188 187 179 171 170 168 153
253 275 292 297 308 297 299 308 310 316 318 308 311 311 291 273 295 281 263 239 222 214 212 210 200 188 184 188 193 194 181 184 184 182 191 191 186 187 188 185 186 184 185 183 179 167 167 172 168
262 249 267 282 316 315 314 325 334 332 356 6 0 338 314 286 284 282 260 242 224 222 208 202 201 204 196 190 184 186 170 163 175 185 193 196 189 189 191 191 188 186 184 187 185 179 173 178 186
276 255 253 282 333 315 352 319 324 344 2 7 359 349 341 343 344 314 283 242 216 214 211 208 194 194 187 181 188 190 185 187 190 186 194 193 188 188 191 191 189 191 187 187 188 185 182 175 186
247 265 261 261 264 313 316 223 312 349 355 351 355 1 356 360 3 350 335 300 246 219 205 204 179 190 181 182 192 193 193 195 186 181 191 196 191 187 187 189 189 192 191 190 188 187 185 185 188
274 328 327 2 89 324 293 176 322 339 333 341 354 5 10 7 2 1 3 9 345 275 208 183 145 164 186 193 198 193 196 195 188 191 197 200 196 194 189 190 193 195 192 193 193 191 189 193 192
44 59 24 7 11 275 340 108 287 313 338 348 356 0 3 7 9 12 11 9 359 354 351 140 140 153 187 197 197 193 195 198 198 197 201 201 198 200 195 194 197 200 198 195 192 192 195 194 194
342 120 142 184 249 299 355 324 280 320 355 12 18 5 6 11 14 16 11 7 3 4 12 25 113 162 222 209 195 183 190 196 206 209 206 206 203 201 194 193 200 206 200 196 193 196 199 199 200
56 26 178 138 351 325 322 306 302 356 11 14 13 16 15 13 9 9 8 8 12 13 13 28 55 44 22 246 203 188 196 201 207 216 209 210 208 203 197 195 200 208 203 199 195 203 203 200 203
140 168 83 108 124 323 316 301 299 323 349 358 3 6 7 8 6 6 5 8 13 18 16 21 36 44 33 357 306 244 213 218 214 216 217 214 212 203 198 204 206 211 205 201 202 201 201 198 202
5 34 80 113 149 152 277 284 272 256 307 343 354 358 360 2 1 1 5 10 13 15 18 15 16 17 13 2 357 9 341 267 230 217 224 216 210 204 202 206 208 212 207 202 202 203 197 198 200
191 205 147 145 233 155 177 275 321 203 356 8 359 0 0 0 -0 7 10 11 15 16 14 10 6 12 11 7 8 1 343 327 295 246 237 219 208 207 207 206 209 214 210 203 202 204 201 201 202
Height
1507 1508 1510 1512 1515 1518 1513 1506 1500 1497 1496 1494 1495 1494 1493 1494 1495 1497 1491 1488 1489 1491 1494 1497 1501 1504 1507 1510 1512 1514 1516 1519 1521 1524 1526 1529 1531 1533 1534 1536 1538 1540 1541 1543 1544 1545 1547 1548 1549
1506 1508 1510 1511 1516 1518 1511 1502 1499 1495 1494 1494 1493 1492 1491 1490 1490 1489 1488 1488 1490 1492 1494 1496 1500 1503 1506 1509 1512 1514 1516 1518 1521 1524 1526 1529 1531 1533 1535 1537 1539 1540 1542 1544 1545 1547 1548 1550 1551
1506 1507 1510 1511 1513 1510 1504 1497 1496 1494 1493 1494 1493 1491 1491 1489 1488 1488 1488 1488 1490 1492 1494 1496 1499 1502 1505 1508 1511 1514 1516 1518 1521 1524 1526 1529 1531 1533 1535 1537 1539 1541 1543 1545 1547 1548 1550 1551 1552
1506 1508 1510 1512 1507 1502 1498 1495 1495 1494 1492 1492 1492 1490 1489 1489 1488 1487 1487 1488 1489 1491 1494 1496 1498 1502 1505 1508 1510 1513 1516 1518 1521 1524 1526 1529 1531 1534 1536 1538 1540 1542 1544 1546 1548 1549 1551 1552 1554
1505 1507 1511 1510 1505 1499 1496 1494 1494 1493 1492 1490 1491 1489 1486 1487 1486 1486 1486 1487 1488 1490 1493 1496 1498 1501 1504 1507 1510 1512 1515 1518 1520 1523 1526 1529 1531 1534 1536 1538 1540 1542 1544 1546 1548 1551 1552 1554 1555
1506 1507 1512 1509 1503 1497 1495 1494 1494 1492 1490 1489 1489 1488 1484 1485 1485 1485 1485 1486 1487 1489 1491 1495 1497 1500 1502 1506 1509 1512 1514 1517 1520 1523 1526 1529 1531 1534 1536 1538 1541 1543 1545 1547 1549 1551 1553 1555 1556
1505 1508 1508 1505 1501 1497 1493 1492 1492 1491 1489 1488 1488 1486 1483 1483 1484 1484 1484 1484 1486 1488 1490 1493 1495 1498 1501 1504 1507 1511 1514 1516 1519 1522 1525 1528 1531 1534 1536 1539 1541 1543 1546 1548 1550 1552 1554 1556 1557
1503 1507 1505 1503 1500 1495 1491 1490 1489 1488 1487 1486 1486 1484 1482 1481 1482 1482 1483 1483 1484 1487 1489 1491 1494 1497 1500 1503 1506 1509 1513 1516 1519 1522 1524 1527 1530 1533 1536 1538 1541 1544 1546 1548 1550 1552 1554 1556 1557
1502 1507 1504 1500 1496 1492 1490 1489 1487 1485 1484 1483 1482 1482 1480 1480 1480 1480 1481 1481 1482 1484 1487 1489 1492 1495 1497 1501 1504 1508 1511 1514 1518 1521 1524 1527 1530 1533 1535 1538 1541 1543 1546 1548 1551 1553 1555 1556 1558
1500 1504 1498 1493 1491 1490 1488 1487 1486 1483 1481 1479 1478 1478 1478 1477 1477 1477 1478 1479 1479 1481 1484 1486 1489 1492 1495 1498 1501 1505 1509 1512 1516 1519 1522 1525 1528 1531 1534 1537 1540 1543 1545 1548 1550 1553 1555 1556 1558
1497 1497 1492 1490 1488 1488 1486 1484 1483 1482 1479 1477 1476 1474 1474 1474 1473 1474 1475 1476 1477 1478 1481 1483 1486 1489 1492 1495 1498 1502 1506 1510 1513 1517 1520 1523 1527 1530 1533 1536 1539 1542 1545 1547 1549 1552 1554 1556 1557
1495 1491 1489 1487 1486 1485 1484 1482 1481 1478 1475 1474 1473 1472 1471 1471 1469 1469 1470 1472 1474 1476 1478 1481 1483 1485 1489 1493 1496 1499 1502 1507 1510 1514 1518 1521 1525 1528 1531 1534 1537 1540 1543 1546 1548 1551 1553 1555 1557
1492 1488 1486 1485 1483 1482 1481 1479 1478 1473 1471 1470 1469 1468 1468 1468 1468 1468 1468 1469 1472 1473 1475 1477 1480 1482 1486 1490 1493 1496 1500 1504 1508 1512 1515 1519 1522 1526 1529 1532 1536 1539 1542 1544 1547 1550 1552 1554 1556
1488 1486 1484 1481 1480 1479 1478 1475 1475 1468 1468 1467 1466 1464 1464 1464 1465 1466 1467 1468 1468 1470 1472 1474 1477 1479 1483 1486 1490 1493 1498 1501 1505 1509 1512 1516 1520 1524 1527 1530 1533 1537 1540 1543 1545 1548 1551 1553 1555
1487 1485 1482 1478 1476 1476 1476 1473 1469 1466 1466 1464 1463 1462 1462 1461 1462 1462 1463 1464 1466 1467 1469 1471 1473 1475 1479 1483 1487 1490 1494 1499 1502 1506 1509 1513 1517 1521 1524 1527 1531 1534 1538 1541 1544 1546 1549 1551 1553
1486 1486 1485 1477 1475 1474 1478 1472 1465 1465 1464 1461 1460 1459 1458 1458 1458 1459 1460 1461 1462 1464 1465 1467 1470 1473 1476 1480 1483 1487 1491 1495 1499 1502 1506 1510 1513 1517 1521 1524 1528 1531 1535 1538 1541 1543 1546 1548 1551
1489 1490 1486 1479 1474 1474 1475 1470 1463 1463 1461 1459 1458 1457 1456 1455 1456 1457 1457 1458 1459 1460 1462 1464 1467 1470 1473 1476 1479 1483 1487 1491 1495 1498 1502 1506 1510 1514 1517 1521 1525 1528 1531 1534 1538 1540 1543 1545 1548
1492 1490 1485 1482 1475 1474 1473 1469 1461 1459 1459 1457 1455 1454 1453 1452 1453 1454 1455 1455 1456 1457 1459 1460 1463 1467 1469 1473 1475 1479 1483 1487 1490 1494 1498 1501 1506 1509 1513 1517 1521 1524 1527 1530 1534 1537 1540 1543 1545
1486 1486 1485 1479 1475 1474 1472 1467 1460 1457 1455 1454 1453 1452 1451 1451 1450 1451 1451 1452 1453 1454 1455 1457 1459 1462 1465 1468 1471 1473 1477 1481 1486 1489 1493 1497 1501 1505 1508 1512 1516 1519 1523 1526 1529 1533 1536 1539 1542
1484 1485 1484 1479 1474 1473 1471 1466 1460 1457 1454 1453 1452 1451 1449 1449 1448 1447 1448 1449 1450 1452 1453 1454 1455 1457 1460 1464 1467 1469 1473 1477 1481 1484 1488 1492 1496 1500 1503 1507 1511 1514 1518 1521 1525 1528 1531 1534 1537
1483 1484 1483 1481 1475 1472 1471 1468 1462 1457 1454 1452 1451 1450 1449 1447 1446 1446 1446 1446 1447 1449 1449 1451 1452 1454 1456 1460 1463 1465 1469 1472 1476 1479 1483 1487 1491 1495 1499 1503 1506 1510 1513 1516 1519 1523 1526 1529 1532
1484 1479 1479 1478 1480 1479 1475 1476 1465 1460 1456 1453 1452 1450 1448 1446 1445 1445 1445 1445 1445 1446 1447 1449 1450 1452 1453 1456 1459 1461 1463 1466 1470 1474 1478 1482 1486 1489 1494 1497 1501 1504 1508 1511 1515 1518 1521 1524 1526
1480 1477 1477 1477 1480 1481 1477 1478 1470 1463 1459 1456 1453 1450 1448 1446 1445 1444 1444 1444 1444 1445 1446 1446 1447 1449 1450 1452 1455 1457 1460 1463 1467 1471 1474 1478 1481 1484 1488 1492 1496 1499 1503 1506 1510 1513 1516 1519 1521
1477 1478 1477 1479 1482 1483 1477 1478 1475 1468 1463 1459 1454 1451 1449 1447 1445 1444 1443 1443 1443 1443 1444 1444 1445 1446 1447 1449 1451 1453 1456 1460 1463 1466 1469 1472 1476 1479 1483 1488 1491 1494 1497 1501 1504 1508 1511 1513 1516
1479 1485 1490 1488 1489 1483 1476 1477 1476 1468 1464 1460 1457 1454 1451 1448 1446 1444 1442 1442 1441 1441 1441 1441 1442 1443 1444 1446 1449 1451 1453 1456 1458 1461 1464 1467 1470 1473 1477 1482 1485 1488 1492 1495 1499 1502 1505 1508 1510
1481 1484 1492 1491 1489 1484 1478 1478 1475 1468 1465 1461 1458 1455 1452 1449 1447 1445 1443 1441 1441 1440 1440 1440 1441 1441 1443 1444 1446 1447 1450 1452 1454 1456 1459 1462 1464 1468 1472 1476 1479 1482 1486 1489 1492 1496 1499 1502 1504
1482 1485 1484 1490 1490 1489 1482 1478 1473 1468 1465 1462 1459 1456 1453 1451 1448 1446 1444 1443 1441 1440 1439 1439 1439 1440 1442 1442 1443 1444 1447 1449 1451 1453 1456 1458 1460 1463 1467 1470 1473 1476 1479 1482 1486 1489 1492 1495 1497
1481 1482 1487 1490 1489 1487 1484 1480 1476 1470 1467 1464 1461 1458 1455 1452 1450 1448 1445 1443 1441 1440 1439 1438 1439 1439 1440 1440 1441 1441 1443 1445 1447 1449 1451 1453 1456 1459 1461 1464 1467 1470 1473 1476 1479 1482 1485 1488 1490
1484 1484 1485 1489 1488 1491 1489 1483 1472 1471 1468 1466 1463 1460 1457 1454 1451 1449 1446 1444 1442 1440 1439 1438 1438 1438 1438 1439 1438 1439 1441 1442 1444 1445 1447 1449 1451 1454 1456 1459 1461 1464 1466 1469 1472 1475 1478 1480 1483
1483 1483 1485 1489 1491 1493 1493 1487 1471 1470 1468 1466 1464 1462 1459 1456 1453 1450 1447 1445 1443 1441 1439 1438 1437 1436 1436 1437 1437 1438 1439 1440 1440 1441 1443 1445 1447 1449 1451 1453 1455 1458 1460 1462 1465 1468 1471 1474 1476